Wind_Speed
7 8 7 7 7 7 7 7 7 6 6 5 4 4 4 4 3 3 3 4 4 4 5 5 5 6 7 7 7 7 7 7 8 8 8 8 8 8 9 9 10 10 10
9 9 8 7 7 8 8 8 8 8 8 7 6 5 5 5 4 4 4 4 5 6 6 7 7 7 7 8 8 8 8 8 8 9 9 10 10 10 11 11 11 11 11
9 9 9 9 9 9 9 9 9 9 9 8 7 7 6 6 6 6 6 6 7 7 8 8 8 8 9 9 9 9 9 9 10 10 10 10 11 11 12 13 13 12 13
9 10 10 10 10 10 10 10 10 10 10 9 8 8 8 8 8 8 8 8 9 9 9 9 9 10 10 10 10 10 10 11 11 11 11 12 12 13 13 14 13 13 14
10 11 11 11 11 12 11 11 11 11 11 10 9 9 10 11 11 10 10 10 10 10 10 11 11 11 11 11 11 11 11 12 12 13 13 13 13 14 14 15 15 16 16
11 11 12 12 12 12 12 12 12 12 12 11 10 10 11 12 12 11 11 11 11 11 12 12 13 13 12 12 12 12 13 13 13 14 14 14 14 14 15 15 16 17 18
13 13 13 13 13 13 13 13 12 12 13 12 12 12 13 13 12 12 12 12 12 12 13 14 14 14 13 14 14 14 14 15 15 15 15 15 15 16 16 17 17 18 18
15 14 14 14 13 13 14 14 14 14 14 14 13 13 13 14 14 13 14 14 15 14 15 15 15 16 16 16 15 16 16 16 16 16 16 16 17 17 18 19 19 19 19
15 15 15 15 14 14 15 15 15 16 15 15 15 14 14 14 14 14 15 16 16 17 17 17 17 17 17 18 18 18 18 18 17 18 18 18 18 19 19 19 20 20 20
15 16 15 15 16 16 16 16 16 16 16 17 16 16 16 16 16 16 17 17 18 19 18 18 18 18 18 19 19 20 20 20 20 19 19 19 19 20 21 21 21 21 21
17 17 17 17 18 18 18 18 18 17 17 17 16 16 16 17 17 17 17 18 18 18 19 19 18 18 18 19 20 20 21 21 21 21 21 21 21 21 22 22 22 23 22
18 17 18 18 19 19 19 19 19 19 18 18 18 18 18 17 17 17 18 18 19 19 19 19 19 19 19 20 19 19 21 21 22 22 22 22 22 23 23 23 23 22 22
19 19 19 19 20 20 20 21 20 20 19 19 19 19 18 18 18 18 18 19 19 20 20 20 19 19 20 20 20 20 20 20 21 22 23 23 22 22 23 23 23 22 22
21 20 21 21 20 21 22 21 21 21 20 20 20 20 19 19 19 19 20 20 20 21 21 21 20 20 20 20 20 20 19 19 20 21 21 22 22 22 22 22 22 22 23
21 21 22 22 22 22 22 22 21 21 21 21 20 20 20 20 20 21 21 21 21 21 21 21 20 21 20 20 21 21 20 20 20 21 21 21 21 21 21 22 22 23 24
22 22 22 22 22 22 22 22 22 22 21 21 21 21 21 21 21 21 22 22 22 22 21 21 21 21 21 21 21 21 21 21 21 22 22 22 21 20 21 22 22 23 24
22 22 22 22 22 22 22 22 22 22 22 22 22 22 22 22 22 23 23 23 23 23 22 22 21 22 22 22 21 21 21 21 21 22 23 23 22 21 21 22 22 23 23
24 24 23 22 23 23 23 23 24 23 24 24 23 23 23 23 23 23 24 24 24 23 23 23 23 24 24 23 23 23 22 22 22 22 23 23 22 22 23 23 23 23 23
24 24 25 25 25 25 25 25 24 24 25 25 24 25 25 25 25 25 25 25 25 25 25 24 25 24 25 24 24 24 23 22 22 22 23 23 23 23 24 24 24 24 24
26 26 26 27 27 27 27 26 26 26 26 25 25 25 25 26 26 26 26 26 26 25 25 25 25 26 26 25 24 23 23 23 23 23 23 24 24 24 24 24 24 24 24
28 28 27 28 28 28 28 27 27 27 27 27 27 27 26 26 27 27 26 26 26 26 26 26 25 26 25 25 25 24 24 24 24 24 24 24 24 25 25 25 24 24 24
29 29 29 29 29 28 28 28 27 27 28 28 27 27 27 27 28 27 27 27 27 27 26 26 25 25 24 25 25 24 24 24 24 24 25 25 24 24 24 24 24 24 24
31 31 31 30 29 29 29 28 27 28 28 28 28 28 28 28 28 28 28 28 28 27 26 26 25 24 24 25 25 25 25 25 24 24 24 24 24 23 23 24 24 24 23
31 31 30 30 30 29 30 29 29 28 28 28 28 28 29 29 28 28 29 29 28 27 27 26 25 25 25 25 25 25 25 24 25 25 24 24 24 24 24 24 23 23 23
31 31 31 30 30 30 30 29 29 29 29 29 29 28 29 29 29 28 29 28 28 27 26 26 26 25 24 24 25 25 25 25 25 25 25 24 23 24 24 24 24 23 22
31 31 31 31 31 30 30 30 30 30 30 30 29 29 29 29 29 28 29 29 28 27 26 26 25 25 25 24 24 25 25 25 25 24 24 23 23 23 24 24 24 23 22
Wind_Direction
348 350 353 351 349 346 341 336 332 330 328 330 326 318 322 320 316 308 299 292 286 286 290 290 291 293 296 296 293 285 276 270 266 266 265 259 258 257 257 258 261 263 262
335 338 340 340 337 335 333 329 326 324 321 321 323 315 320 320 315 311 303 291 284 284 287 286 284 287 291 292 289 282 276 274 270 269 267 267 268 262 260 260 263 267 265
327 329 330 333 334 331 327 325 320 318 315 316 313 312 311 308 303 299 295 291 288 287 286 285 283 284 286 286 282 277 274 272 273 274 273 273 272 270 266 265 264 263 264
322 321 321 325 324 325 324 320 317 312 309 307 306 308 306 303 300 297 295 294 291 289 288 286 286 284 282 282 279 277 274 272 273 274 273 272 271 271 270 269 266 262 263
320 317 318 321 322 321 318 316 314 309 306 301 300 303 300 299 296 293 293 294 292 286 282 282 283 284 282 280 278 278 275 272 272 272 272 271 271 270 272 272 270 267 265
311 315 314 314 317 317 314 312 309 306 304 294 291 292 293 295 294 289 289 289 290 287 284 284 285 283 281 280 279 277 275 273 271 270 269 269 269 270 271 272 272 270 268
304 308 310 308 312 311 308 307 307 303 301 295 287 286 289 291 291 288 288 288 288 289 288 286 286 283 280 281 280 277 274 273 271 269 269 269 270 271 271 270 270 271 269
299 300 304 303 304 305 305 303 302 301 296 294 291 288 289 291 288 286 289 291 291 291 291 289 285 284 280 279 278 277 273 272 272 270 270 269 270 271 271 271 269 267 268
297 297 302 302 300 299 300 302 301 301 297 296 296 292 292 290 290 289 291 292 290 289 288 288 285 284 283 279 276 275 272 270 271 271 271 271 271 270 270 269 267 265 266
294 294 297 299 299 297 295 295 296 297 297 296 294 293 292 290 293 292 291 290 289 285 285 287 286 286 284 281 278 275 272 270 270 270 271 272 271 270 270 269 268 266 266
290 292 294 295 297 296 294 294 293 291 291 293 292 292 294 295 293 294 292 291 291 290 287 288 288 287 285 284 282 279 278 273 271 272 272 273 273 271 270 270 270 268 267
291 292 294 295 295 295 295 293 290 288 287 288 290 290 291 293 293 292 294 294 292 290 289 288 289 287 285 285 286 283 282 275 273 274 276 276 275 274 273 271 271 270 268
292 295 296 294 293 291 291 290 286 285 284 285 287 289 292 293 294 293 293 293 292 290 287 287 289 288 285 284 285 283 283 281 280 279 278 276 276 277 275 273 271 270 269
290 294 296 295 292 289 291 287 283 282 282 285 286 287 290 292 294 295 294 295 296 295 291 288 288 287 286 285 284 283 284 283 284 284 282 279 276 275 274 273 272 272 271
291 293 296 297 295 292 291 288 287 285 285 286 289 289 290 290 291 294 295 296 298 300 298 293 291 291 289 285 284 284 283 283 283 284 284 282 278 277 275 274 274 273 272
295 296 296 296 296 295 290 288 288 286 286 288 288 289 290 291 291 291 293 295 295 297 299 296 294 293 291 287 284 281 281 283 284 283 282 280 280 281 278 276 275 275 273
295 296 294 293 295 295 294 293 292 288 288 289 289 288 289 289 290 290 291 292 293 294 295 296 295 296 294 290 286 283 282 283 285 284 283 280 280 280 280 278 275 275 274
293 294 292 290 293 293 292 291 291 291 290 291 291 291 290 289 289 291 290 288 288 290 291 293 293 292 292 288 286 284 283 283 283 283 283 282 281 281 281 279 277 275 275
290 291 291 290 291 291 289 289 289 290 290 289 290 290 290 289 289 291 291 291 289 287 288 289 291 290 290 288 285 285 283 283 283 283 282 281 281 280 280 279 278 277 277
286 288 288 289 287 287 287 286 288 288 289 287 288 289 290 290 290 290 291 291 292 289 289 290 292 290 289 287 284 284 285 284 282 281 281 281 280 280 280 279 278 278 277
283 285 286 287 288 286 285 284 286 286 287 287 286 286 288 288 288 288 288 289 291 291 292 292 292 292 287 287 287 287 289 288 284 279 279 280 279 279 279 279 277 276 276
282 284 284 286 286 285 284 285 285 286 286 287 288 287 287 287 287 286 286 288 290 291 292 293 293 292 288 287 287 287 289 289 287 284 281 280 278 277 278 278 277 277 277
281 283 283 284 285 285 284 285 285 285 286 286 287 287 286 285 285 285 285 287 289 290 291 291 291 290 288 288 286 287 287 288 289 286 281 280 279 277 277 277 278 277 274
280 281 281 282 283 284 285 284 285 285 286 287 286 287 288 285 283 284 284 285 287 289 289 291 290 289 288 288 287 288 288 288 289 288 283 280 279 277 276 275 276 275 272
280 280 280 281 282 284 284 283 283 284 285 286 286 286 287 285 283 284 284 285 285 286 287 288 289 290 289 286 287 288 288 289 288 287 284 281 280 278 277 275 274 275 275
279 279 280 281 282 283 282 282 282 282 284 284 284 283 284 285 285 284 285 285 284 285 285 286 286 288 290 289 289 289 287 288 287 286 285 282 278 276 275 274 273 274 274
Height
5889 5887 5886 5885 5884 5883 5881 5880 5879 5877 5876 5875 5874 5873 5872 5871 5871 5870 5870 5870 5869 5869 5869 5869 5869 5868 5868 5867 5867 5867 5866 5866 5866 5866 5866 5866 5866 5866 5867 5867 5867 5867 5867
5888 5887 5885 5884 5883 5882 5881 5879 5877 5876 5875 5874 5873 5872 5871 5870 5870 5869 5868 5868 5868 5867 5867 5867 5867 5866 5866 5865 5864 5864 5864 5864 5863 5863 5863 5863 5864 5863 5864 5864 5864 5864 5864
5887 5885 5884 5883 5882 5880 5879 5878 5876 5875 5874 5872 5871 5870 5869 5868 5868 5867 5867 5866 5866 5865 5865 5865 5864 5864 5863 5863 5862 5861 5861 5861 5861 5861 5861 5861 5861 5860 5860 5861 5861 5861 5861
5885 5884 5882 5881 5880 5879 5878 5876 5875 5873 5872 5870 5869 5868 5867 5867 5866 5866 5865 5864 5864 5863 5862 5862 5862 5861 5860 5860 5859 5858 5858 5858 5858 5858 5857 5857 5857 5857 5857 5857 5857 5857 5858
5883 5882 5881 5880 5878 5877 5876 5874 5873 5871 5870 5868 5867 5866 5865 5865 5864 5863 5863 5862 5861 5860 5860 5859 5858 5858 5857 5856 5855 5855 5855 5854 5854 5854 5854 5853 5853 5853 5853 5853 5853 5853 5853
5882 5880 5879 5878 5877 5875 5874 5872 5870 5869 5867 5866 5865 5864 5863 5862 5861 5860 5860 5859 5858 5857 5857 5856 5855 5854 5853 5852 5851 5851 5851 5851 5850 5850 5849 5849 5849 5849 5849 5849 5848 5848 5849
5879 5878 5877 5875 5874 5873 5871 5869 5868 5866 5865 5864 5862 5861 5860 5859 5858 5858 5857 5856 5855 5854 5853 5852 5851 5850 5849 5848 5847 5847 5846 5846 5846 5845 5845 5845 5845 5844 5844 5844 5844 5844 5844
5876 5875 5874 5872 5871 5870 5868 5866 5865 5863 5862 5860 5859 5858 5857 5856 5855 5855 5854 5853 5851 5850 5849 5848 5847 5846 5845 5844 5843 5842 5842 5841 5841 5841 5840 5840 5840 5839 5839 5839 5839 5839 5839
5873 5872 5870 5869 5868 5866 5865 5863 5861 5860 5858 5857 5855 5854 5853 5852 5851 5851 5850 5848 5847 5846 5844 5843 5842 5841 5840 5839 5838 5838 5837 5836 5836 5835 5835 5834 5834 5834 5833 5833 5833 5834 5833
5869 5868 5867 5865 5864 5862 5861 5859 5857 5856 5854 5853 5852 5850 5849 5848 5847 5846 5845 5844 5842 5841 5840 5838 5837 5836 5835 5833 5833 5832 5831 5830 5830 5829 5829 5829 5828 5828 5828 5827 5827 5827 5827
5865 5864 5863 5861 5859 5858 5856 5854 5853 5851 5850 5849 5847 5846 5845 5844 5842 5841 5840 5838 5837 5836 5834 5833 5832 5830 5829 5828 5827 5826 5825 5824 5824 5823 5823 5823 5822 5821 5821 5821 5820 5820 5820
5860 5859 5858 5856 5854 5853 5851 5850 5848 5847 5845 5844 5843 5842 5841 5839 5838 5836 5835 5833 5832 5831 5830 5828 5827 5825 5824 5823 5821 5820 5819 5818 5818 5817 5816 5816 5815 5815 5814 5814 5814 5813 5813
5856 5854 5853 5851 5849 5848 5846 5845 5843 5841 5840 5839 5838 5837 5835 5834 5833 5831 5830 5828 5827 5825 5824 5823 5821 5819 5818 5817 5816 5815 5813 5812 5811 5811 5810 5809 5809 5808 5807 5807 5807 5806 5806
5851 5849 5848 5846 5844 5843 5841 5840 5838 5836 5835 5834 5833 5832 5830 5829 5827 5826 5824 5823 5821 5820 5818 5816 5815 5813 5812 5811 5809 5808 5807 5806 5805 5804 5804 5803 5802 5801 5800 5800 5800 5800 5799
5845 5843 5842 5840 5839 5837 5835 5834 5832 5831 5830 5829 5828 5826 5825 5823 5822 5820 5819 5817 5816 5814 5812 5810 5809 5807 5806 5804 5803 5802 5801 5800 5799 5798 5797 5796 5795 5794 5794 5793 5793 5793 5792
5839 5837 5836 5834 5832 5831 5829 5828 5827 5825 5824 5823 5822 5821 5819 5818 5816 5815 5813 5811 5810 5808 5806 5804 5803 5801 5800 5798 5797 5796 5795 5794 5793 5792 5791 5790 5789 5788 5787 5787 5786 5786 5785
5833 5832 5830 5828 5827 5825 5824 5822 5820 5819 5818 5817 5816 5814 5813 5812 5810 5808 5807 5805 5803 5801 5800 5798 5797 5795 5793 5792 5791 5789 5788 5787 5786 5786 5785 5783 5783 5781 5781 5780 5779 5778 5778
5827 5825 5823 5822 5821 5819 5817 5816 5814 5813 5812 5810 5809 5808 5806 5805 5804 5802 5800 5799 5797 5795 5793 5791 5790 5789 5787 5785 5784 5783 5782 5781 5780 5778 5777 5776 5775 5774 5773 5773 5772 5771 5770
5820 5818 5817 5815 5814 5812 5811 5809 5808 5807 5805 5804 5803 5801 5800 5798 5796 5795 5793 5791 5789 5788 5786 5784 5783 5782 5780 5779 5777 5776 5775 5774 5773 5771 5770 5769 5768 5767 5766 5765 5764 5763 5763
5812 5811 5810 5808 5806 5805 5803 5802 5801 5800 5798 5797 5795 5794 5792 5791 5789 5788 5786 5784 5782 5780 5779 5777 5776 5774 5773 5771 5770 5769 5768 5767 5765 5764 5762 5761 5760 5759 5758 5757 5756 5756 5755
5805 5803 5802 5800 5799 5797 5796 5795 5794 5792 5790 5789 5787 5786 5785 5783 5781 5780 5778 5777 5775 5773 5772 5770 5769 5767 5765 5764 5763 5761 5760 5759 5758 5756 5755 5753 5752 5751 5750 5748 5748 5748 5747
5797 5795 5794 5793 5791 5790 5788 5787 5785 5784 5782 5781 5779 5778 5777 5775 5773 5772 5770 5769 5767 5766 5764 5763 5761 5759 5758 5756 5755 5754 5752 5751 5749 5748 5747 5745 5744 5743 5742 5741 5740 5739 5739
5788 5787 5786 5784 5783 5781 5780 5779 5777 5775 5774 5773 5771 5770 5768 5766 5765 5763 5762 5760 5759 5758 5757 5755 5753 5752 5750 5748 5747 5746 5744 5742 5741 5739 5738 5737 5736 5735 5735 5734 5732 5732 5731
5779 5778 5777 5775 5774 5773 5771 5770 5769 5766 5765 5764 5763 5761 5759 5757 5756 5754 5753 5752 5751 5749 5748 5747 5746 5744 5743 5741 5739 5737 5736 5734 5733 5731 5730 5729 5728 5728 5727 5726 5725 5724 5724
5770 5768 5767 5766 5765 5764 5763 5761 5760 5758 5757 5756 5754 5752 5751 5748 5747 5746 5744 5743 5742 5741 5740 5739 5738 5737 5735 5733 5732 5730 5729 5727 5725 5723 5722 5722 5721 5720 5720 5719 5718 5718 5717
5760 5759 5758 5757 5756 5754 5753 5752 5750 5749 5748 5747 5745 5744 5742 5740 5739 5738 5736 5735 5734 5732 5732 5731 5730 5729 5728 5726 5724 5722 5721 5719 5718 5716 5715 5714 5713 5713 5712 5711 5711 5711 5711